| time (UTC) | temp F | wind direction | speed MPH | gust MPH | rain 1hr in | rain 24hr in | rain mn in | humidity % | barometer mb |
| 20260507033009 | 40 | 270 | 0.0 | 0.0 | 0.00 | 0.00 | 0.00 | 67 | 1016.7 |
| 20260507031508 | 41 | 270 | 0.0 | 0.0 | 0.00 | 0.00 | 0.00 | 65 | 1016.7 |
| 20260507030007 | 42 | 270 | 0.0 | 0.0 | 0.00 | 0.00 | 0.00 | 64 | 1016.5 |
| 20260507024506 | 42 | 270 | 0.0 | 0.0 | 0.00 | 0.00 | 0.00 | 63 | 1016.5 |
| 20260507023004 | 43 | 270 | 0.0 | 0.0 | 0.00 | 0.00 | 0.00 | 61 | 1016.3 |
| 20260507021502 | 44 | 270 | 0.0 | 0.0 | 0.00 | 0.00 | 0.00 | 59 | 1016.2 |
| 20260507020000 | 45 | 271 | 0.0 | 1.0 | 0.00 | 0.00 | 0.00 | 58 | 1015.9 |
| 20260507014600 | 46 | 271 | 0.0 | 3.0 | 0.00 | 0.00 | 0.00 | 56 | 1015.8 |
| 20260507013116 | 47 | 271 | 1.0 | 3.0 | 0.00 | 0.00 | 0.00 | 53 | 1015.6 |
| 20260507011559 | 48 | 270 | 1.0 | 4.0 | 0.00 | 0.00 | 0.00 | 52 | 1015.7 |
| 20260507010057 | 48 | 288 | 2.0 | 5.0 | 0.00 | 0.00 | 0.00 | 50 | 1015.7 |
| 20260507004558 | 49 | 328 | 4.0 | 11.0 | 0.00 | 0.00 | 0.00 | 49 | 1015.6 |
| 20260507003057 | 50 | 292 | 4.0 | 9.0 | 0.00 | 0.00 | 0.00 | 48 | 1015.4 |
| 20260507001610 | 50 | 338 | 4.0 | 12.0 | 0.00 | 0.00 | 0.00 | 47 | 1015.5 |
| 20260507000053 | 51 | 309 | 2.0 | 9.0 | 0.00 | 0.00 | 0.00 | 48 | 1015.2 |
| 20260506234559 | 52 | 304 | 3.0 | 12.0 | 0.00 | 0.00 | 0.00 | 48 | 1015.1 |
| 20260506233053 | 52 | 305 | 3.0 | 14.0 | 0.00 | 0.00 | 0.00 | 48 | 1015.0 |
| 20260506231553 | 53 | 323 | 5.0 | 12.0 | 0.00 | 0.00 | 0.00 | 46 | 1015.0 |
| 20260506230050 | 53 | 324 | 3.0 | 11.0 | 0.00 | 0.00 | 0.00 | 46 | 1014.8 |
| 20260506224604 | 54 | 298 | 4.0 | 11.0 | 0.00 | 0.00 | 0.00 | 46 | 1014.5 |
| 20260506223054 | 53 | 327 | 5.0 | 11.0 | 0.00 | 0.00 | 0.00 | 45 | 1014.3 |
| 20260506221548 | 54 | 267 | 5.0 | 11.0 | 0.00 | 0.00 | 0.00 | 45 | 1014.5 |
| 20260506214549 | 54 | 329 | 4.0 | 15.0 | 0.00 | 0.00 | 0.00 | 44 | 1014.2 |
| 20260506213046 | 56 | 281 | 4.0 | 11.0 | 0.00 | 0.00 | 0.00 | 44 | 1014.1 |
| 20260506211553 | 54 | 299 | 5.0 | 9.0 | 0.00 | 0.00 | 0.00 | 45 | 1014.1 |
| 20260506210044 | 56 | 311 | 5.0 | 12.0 | 0.00 | 0.00 | 0.00 | 44 | 1014.0 |
| 20260506204544 | 56 | 291 | 3.0 | 9.0 | 0.00 | 0.00 | 0.00 | 44 | 1014.1 |
| 20260506203043 | 56 | 296 | 4.0 | 12.0 | 0.00 | 0.00 | 0.00 | 43 | 1014.1 |
| 20260506201543 | 56 | 292 | 5.0 | 11.0 | 0.00 | 0.00 | 0.00 | 43 | 1014.4 |
| 20260506200042 | 57 | 287 | 3.0 | 9.0 | 0.00 | 0.00 | 0.00 | 45 | 1014.4 |
| 20260506194545 | 56 | 315 | 5.0 | 12.0 | 0.00 | 0.00 | 0.00 | 41 | 1014.7 |
| 20260506193047 | 57 | 324 | 4.0 | 9.0 | 0.00 | 0.00 | 0.00 | 41 | 1014.7 |
| 20260506191540 | 57 | 287 | 6.0 | 12.0 | 0.00 | 0.00 | 0.00 | 40 | 1014.6 |
| 20260506190039 | 57 | 327 | 3.0 | 8.0 | 0.00 | 0.00 | 0.00 | 45 | 1014.5 |
| 20260506184539 | 56 | 289 | 2.0 | 8.0 | 0.00 | 0.00 | 0.00 | 42 | 1014.5 |
| 20260506183038 | 56 | 310 | 2.0 | 5.0 | 0.00 | 0.00 | 0.00 | 44 | 1014.5 |
| 20260506181536 | 55 | 297 | 3.0 | 9.0 | 0.00 | 0.00 | 0.00 | 49 | 1014.6 |
| 20260506180032 | 54 | 290 | 2.0 | 9.0 | 0.00 | 0.00 | 0.00 | 46 | 1014.7 |
| 20260506174534 | 54 | 304 | 3.0 | 7.0 | 0.00 | 0.00 | 0.00 | 49 | 1014.7 |
| 20260506173038 | 53 | 263 | 1.0 | 7.0 | 0.00 | 0.00 | 0.00 | 48 | 1014.8 |
| 20260506171530 | 54 | 271 | 2.0 | 9.0 | 0.00 | 0.00 | 0.00 | 45 | 1014.9 |
| 20260506170029 | 53 | 332 | 3.0 | 12.0 | 0.00 | 0.00 | 0.00 | 47 | 1014.9 |
| 20260506164529 | 54 | 225 | 1.0 | 9.0 | 0.00 | 0.00 | 0.00 | 47 | 1014.9 |
| 20260506163027 | 54 | 258 | 0.0 | 6.0 | 0.00 | 0.00 | 0.00 | 52 | 1014.9 |
| 20260506161528 | 55 | 315 | 1.0 | 6.0 | 0.00 | 0.00 | 0.00 | 48 | 1014.8 |
| 20260506160037 | 53 | 260 | 0.0 | 5.0 | 0.00 | 0.00 | 0.00 | 52 | 1014.8 |
| 20260506154524 | 53 | 342 | 2.0 | 8.0 | 0.00 | 0.00 | 0.00 | 48 | 1015.0 |
| 20260506153020 | 52 | 330 | 3.0 | 5.0 | 0.00 | 0.00 | 0.00 | 49 | 1014.9 |
| 20260506151518 | 51 | 309 | 2.0 | 5.0 | 0.00 | 0.00 | 0.00 | 50 | 1014.9 |
| 20260506150016 | 52 | 311 | 3.0 | 6.0 | 0.00 | 0.00 | 0.00 | 49 | 1015.0 |
| 20260506144515 | 52 | 312 | 2.0 | 6.0 | 0.00 | 0.00 | 0.00 | 49 | 1015.0 |
| 20260506143013 | 52 | 191 | 1.0 | 3.0 | 0.00 | 0.00 | 0.00 | 53 | 1015.1 |
| 20260506141511 | 52 | 182 | 0.0 | 3.0 | 0.00 | 0.00 | 0.00 | 58 | 1015.0 |
| 20260506140009 | 51 | 123 | 0.0 | 1.0 | 0.00 | 0.00 | 0.00 | 63 | 1015.0 |
| 20260506134504 | 49 | 121 | 0.0 | 4.0 | 0.00 | 0.00 | 0.00 | 65 | 1014.8 |
| 20260506133115 | 49 | 35 | 0.0 | 3.0 | 0.00 | 0.00 | 0.00 | 68 | 1014.5 |
| 20260506131604 | 47 | 27 | 0.0 | 0.0 | 0.00 | 0.00 | 0.00 | 73 | 1014.3 |
| 20260506130058 | 45 | 27 | 0.0 | 1.0 | 0.00 | 0.07 | 0.00 | 74 | 1014.2 |
| 20260506124559 | 44 | 334 | 0.0 | 0.0 | 0.00 | 0.07 | 0.00 | 80 | 1014.1 |
| 20260506123051 | 42 | 334 | 0.0 | 0.0 | 0.00 | 0.07 | 0.00 | 82 | 1013.7 |
| 20260506121546 | 41 | 334 | 0.0 | 0.0 | 0.00 | 0.07 | 0.00 | 84 | 1013.6 |
| 20260506120043 | 40 | 334 | 0.0 | 0.0 | 0.00 | 0.11 | 0.00 | 85 | 1013.4 |
| 20260506114542 | 39 | 334 | 0.0 | 0.0 | 0.00 | 0.11 | 0.00 | 85 | 1013.3 |
| 20260506113038 | 38 | 334 | 0.0 | 0.0 | 0.00 | 0.11 | 0.00 | 85 | 1013.3 |
| 20260506111536 | 38 | 334 | 0.0 | 0.0 | 0.00 | 0.11 | 0.00 | 84 | 1013.3 |
| 20260506110032 | 38 | 334 | 0.0 | 0.0 | 0.00 | 0.11 | 0.00 | 83 | 1013.3 |
| 20260506104529 | 39 | 334 | 0.0 | 0.0 | 0.00 | 0.11 | 0.00 | 81 | 1013.1 |
| 20260506103036 | 39 | 334 | 0.0 | 0.0 | 0.00 | 0.11 | 0.00 | 78 | 1012.9 |
| 20260506101524 | 40 | 334 | 0.0 | 0.0 | 0.00 | 0.11 | 0.00 | 76 | 1012.4 |
| 20260506100020 | 41 | 334 | 0.0 | 0.0 | 0.00 | 0.11 | 0.00 | 73 | 1012.3 |
| 20260506094518 | 42 | 334 | 0.0 | 0.0 | 0.00 | 0.11 | 0.00 | 71 | 1012.4 |
| 20260506093015 | 43 | 334 | 0.0 | 0.0 | 0.00 | 0.11 | 0.00 | 69 | 1012.3 |
| 20260506091515 | 43 | 334 | 0.0 | 0.0 | 0.00 | 0.11 | 0.00 | 68 | 1012.3 |
| 20260506090012 | 43 | 334 | 0.0 | 0.0 | 0.00 | 0.11 | 0.00 | 69 | 1012.0 |
| 20260506084512 | 43 | 334 | 0.0 | 0.0 | 0.00 | 0.11 | 0.00 | 66 | 1012.3 |
| 20260506083010 | 43 | 334 | 0.0 | 3.0 | 0.00 | 0.11 | 0.00 | 66 | 1012.0 |
| 20260506081506 | 43 | 334 | 0.0 | 0.0 | 0.00 | 0.11 | 0.00 | 65 | 1011.9 |
| 20260506073059 | 45 | 334 | 0.0 | 3.0 | 0.00 | 0.11 | 0.00 | 61 | 1011.7 |
| 20260506071555 | 46 | 334 | 0.0 | 1.0 | 0.00 | 0.11 | 0.00 | 61 | 1011.5 |
| 20260506061549 | 47 | 335 | 1.0 | 5.0 | 0.00 | 0.11 | 0.00 | 62 | 1011.5 |
| 20260506044539 | 50 | 333 | 0.0 | 3.0 | 0.00 | 0.11 | 0.11 | 57 | 1010.9 |
| 20260506043036 | 50 | 291 | 0.0 | 4.0 | 0.00 | 0.11 | 0.11 | 57 | 1010.8 |
| 20260506041535 | 50 | 291 | 0.0 | 2.0 | 0.00 | 0.11 | 0.11 | 58 | 1010.9 |
| 20260506040034 | 50 | 291 | 0.0 | 2.0 | 0.00 | 0.11 | 0.11 | 61 | 1011.2 |
| 20260506034534 | 49 | 291 | 0.0 | 2.0 | 0.00 | 0.11 | 0.11 | 67 | 1010.9 |